Time,TemperatureF,DewpointF,PressureIn,WindDirection,WindDirectionDegrees,WindSpeedMPH,WindSpeedGustMPH,Humidity,HourlyPrecipIn,Conditions,Clouds,dailyrainin,SoftwareType,DateUTC
2013-06-13 00:04:00,71.6,71.6,29.87,North,0,0.0,0.0,100,0.00,,CLR,0.00,VWS V14.01,2013-06-13 04:04:00,
2013-06-13 00:15:00,71.6,71.6,29.87,North,0,0.0,0.0,100,0.00,,CLR,0.00,VWS V14.01,2013-06-13 04:15:00,
2013-06-13 00:19:00,71.6,71.6,29.87,North,0,0.0,0.0,100,0.00,,CLR,0.00,VWS V14.01,2013-06-13 04:19:00,
2013-06-13 00:24:00,71.6,71.6,29.87,North,0,0.0,0.0,100,0.00,,CLR,0.00,VWS V14.01,2013-06-13 04:24:00,
2013-06-13 00:35:00,71.6,69.8,29.86,North,0,0.0,0.0,94,0.00,,,0.00,VWS V14.01,2013-06-13 04:35:00,
2013-06-13 00:36:00,71.6,71.6,29.87,North,0,0.0,0.0,100,0.00,,CLR,0.00,VWS V14.01,2013-06-13 04:36:00,
2013-06-13 00:41:00,71.6,69.8,29.86,North,0,0.0,0.0,94,0.00,,,0.00,VWS V14.01,2013-06-13 04:41:00,
2013-06-13 00:55:00,69.8,69.8,29.85,North,0,0.0,0.0,100,0.00,,CLR,0.00,VWS V14.01,2013-06-13 04:55:00,
2013-06-13 00:59:00,69.8,69.8,29.85,North,0,0.0,0.0,100,0.00,,CLR,0.00,VWS V14.01,2013-06-13 04:59:00,
2013-06-13 01:04:00,69.8,69.8,29.85,North,0,0.0,0.0,100,0.00,,CLR,0.00,VWS V14.01,2013-06-13 05:04:00,
2013-06-13 01:15:00,69.8,69.8,29.84,North,0,0.0,0.0,100,0.00,,,0.00,VWS V14.01,2013-06-13 05:15:00,
2013-06-13 01:19:00,69.8,69.8,29.84,North,0,0.0,0.0,100,0.00,,,0.00,VWS V14.01,2013-06-13 05:19:00,
2013-06-13 01:24:00,69.8,69.8,29.84,North,0,0.0,0.0,100,0.00,,,0.00,VWS V14.01,2013-06-13 05:24:00,
2013-06-13 01:35:00,69.8,69.8,29.84,North,0,0.0,0.0,100,0.00,,CLR,0.00,VWS V14.01,2013-06-13 05:35:00,
2013-06-13 01:41:00,69.8,69.8,29.84,North,0,0.0,0.0,100,0.00,,CLR,0.00,VWS V14.01,2013-06-13 05:41:00,
2013-06-13 01:55:00,75.2,71.7,29.84,WSW,250,4.0,4.0,89,0.00,,CLR,0.00,VWS V14.01,2013-06-13 05:55:00,
2013-06-13 02:01:00,75.2,71.7,29.84,WSW,250,4.0,4.0,89,0.00,,CLR,0.00,VWS V14.01,2013-06-13 06:01:00,
2013-06-13 02:15:00,69.8,68.0,29.84,North,0,0.0,0.0,94,0.00,,CLR,0.00,VWS V14.01,2013-06-13 06:15:00,
2013-06-13 02:21:00,69.8,68.0,29.84,North,0,0.0,4.0,94,0.00,,CLR,0.00,VWS V14.01,2013-06-13 06:21:00,
2013-06-13 02:35:00,73.4,71.6,29.84,North,0,0.0,0.0,94,0.00,,CLR,0.00,VWS V14.01,2013-06-13 06:35:00,
2013-06-13 02:41:00,73.4,71.6,29.84,North,0,0.0,0.0,94,0.00,,CLR,0.00,VWS V14.01,2013-06-13 06:41:00,
2013-06-13 02:55:00,71.6,71.6,29.84,North,0,0.0,0.0,100,0.00,,CLR,0.00,VWS V14.01,2013-06-13 06:55:00,
2013-06-13 03:01:00,71.6,71.6,29.84,North,0,0.0,0.0,100,0.00,,CLR,0.00,VWS V14.01,2013-06-13 07:01:00,
2013-06-13 03:15:00,69.8,69.8,29.84,North,0,0.0,0.0,100,0.00,,,0.00,VWS V14.01,2013-06-13 07:15:00,
2013-06-13 03:21:00,69.8,69.8,29.84,North,0,0.0,0.0,100,0.00,,,0.00,VWS V14.01,2013-06-13 07:21:00,
2013-06-13 03:35:00,69.8,68.0,29.83,North,0,0.0,0.0,94,0.00,,,0.00,VWS V14.01,2013-06-13 07:35:00,
2013-06-13 03:41:00,69.8,68.0,29.83,North,0,0.0,0.0,94,0.00,,,0.00,VWS V14.01,2013-06-13 07:41:00,
2013-06-13 03:48:00,69.8,68.0,29.83,North,0,0.0,0.0,94,0.00,,,0.00,VWS V14.01,2013-06-13 07:48:00,
2013-06-13 03:55:00,68.0,68.0,29.83,North,0,0.0,0.0,100,0.00,,,0.00,VWS V14.01,2013-06-13 07:55:00,
2013-06-13 04:01:00,68.0,68.0,29.83,North,0,0.0,0.0,100,0.00,,,0.00,VWS V14.01,2013-06-13 08:01:00,
2013-06-13 04:15:00,68.0,68.0,29.82,WSW,250,3.0,3.0,100,0.00,,CLR,0.00,VWS V14.01,2013-06-13 08:15:00,
2013-06-13 04:21:00,68.0,68.0,29.82,WSW,250,3.0,3.0,100,0.00,,CLR,0.00,VWS V14.01,2013-06-13 08:21:00,
2013-06-13 04:31:00,68.0,68.0,29.82,WSW,250,3.0,3.0,100,0.00,,CLR,0.00,VWS V14.01,2013-06-13 08:31:00,
2013-06-13 04:35:00,73.4,64.2,29.82,West,280,3.0,3.0,73,0.00,,CLR,0.00,VWS V14.01,2013-06-13 08:35:00,
2013-06-13 04:41:00,73.4,64.2,29.82,West,280,3.0,3.0,73,0.00,,CLR,0.00,VWS V14.01,2013-06-13 08:41:00,
2013-06-13 04:55:00,73.4,64.2,29.82,WSW,240,4.0,4.0,73,0.00,,CLR,0.00,VWS V14.01,2013-06-13 08:55:00,
2013-06-13 05:01:00,73.4,64.2,29.82,WSW,240,4.0,4.0,73,0.00,,CLR,0.00,VWS V14.01,2013-06-13 09:01:00,
2013-06-13 05:15:00,66.2,64.4,29.81,North,0,0.0,0.0,94,0.00,,CLR,0.00,VWS V14.01,2013-06-13 09:15:00,
2013-06-13 05:21:00,66.2,64.4,29.81,North,0,0.0,4.0,94,0.00,,CLR,0.00,VWS V14.01,2013-06-13 09:21:00,
2013-06-13 05:35:00,66.2,64.4,29.81,North,0,0.0,0.0,94,0.00,,CLR,0.00,VWS V14.01,2013-06-13 09:35:00,
2013-06-13 05:41:00,66.2,64.4,29.81,North,0,0.0,0.0,94,0.00,,CLR,0.00,VWS V14.01,2013-06-13 09:41:00,
2013-06-13 05:55:00,64.4,64.4,29.80,North,0,0.0,0.0,100,0.00,,CLR,0.00,VWS V14.01,2013-06-13 09:55:00,
2013-06-13 05:58:00,64.4,64.4,29.80,North,0,0.0,0.0,100,0.00,,CLR,0.00,VWS V14.01,2013-06-13 09:58:00,
2013-06-13 06:03:00,64.4,64.4,29.80,North,0,0.0,0.0,100,0.00,,CLR,0.00,VWS V14.01,2013-06-13 10:03:00,
2013-06-13 06:15:00,66.2,64.4,29.79,North,0,0.0,0.0,94,0.00,,CLR,0.00,VWS V14.01,2013-06-13 10:15:00,
2013-06-13 06:21:00,66.2,64.4,29.79,North,0,0.0,0.0,94,0.00,,CLR,0.00,VWS V14.01,2013-06-13 10:21:00,
2013-06-13 06:35:00,66.2,64.4,29.79,North,0,0.0,0.0,94,0.00,,CLR,0.00,VWS V14.01,2013-06-13 10:35:00,
2013-06-13 06:41:00,66.2,64.4,29.79,North,0,0.0,0.0,94,0.00,,CLR,0.00,VWS V14.01,2013-06-13 10:41:00,
2013-06-13 06:53:00,66.2,64.4,29.79,North,0,0.0,0.0,94,0.00,,CLR,0.00,VWS V14.01,2013-06-13 10:53:00,
2013-06-13 06:55:00,69.8,64.4,29.79,WSW,240,4.0,4.0,83,0.00,,CLR,0.00,VWS V14.01,2013-06-13 10:55:00,
2013-06-13 06:58:00,69.8,64.4,29.79,WSW,240,4.0,4.0,83,0.00,,CLR,0.00,VWS V14.01,2013-06-13 10:58:00,
2013-06-13 07:03:00,69.8,64.4,29.79,WSW,240,4.0,4.0,83,0.00,,CLR,0.00,VWS V14.01,2013-06-13 11:03:00,
2013-06-13 07:15:00,75.2,64.3,29.79,SW,220,3.0,3.0,69,0.00,,CLR,0.00,VWS V14.01,2013-06-13 11:15:00,
2013-06-13 07:21:00,75.2,64.3,29.79,SW,220,3.0,4.0,69,0.00,,CLR,0.00,VWS V14.01,2013-06-13 11:21:00,
2013-06-13 07:35:00,77.0,64.3,29.79,West,260,6.0,6.0,65,0.00,,CLR,0.00,VWS V14.01,2013-06-13 11:35:00,
2013-06-13 07:41:00,77.0,64.3,29.79,West,260,6.0,6.0,65,0.00,,CLR,0.00,VWS V14.01,2013-06-13 11:41:00,
2013-06-13 07:55:00,78.8,64.2,29.79,WSW,240,4.0,4.0,61,0.00,,CLR,0.00,VWS V14.01,2013-06-13 11:55:00,
2013-06-13 08:01:00,78.8,64.2,29.79,WSW,240,4.0,6.0,61,0.00,,CLR,0.00,VWS V14.01,2013-06-13 12:01:00,
2013-06-13 08:15:00,78.8,66.1,29.79,SW,230,4.0,4.0,65,0.00,,CLR,0.00,VWS V14.01,2013-06-13 12:15:00,
2013-06-13 08:21:00,78.8,66.1,29.79,SW,230,4.0,4.0,65,0.00,,CLR,0.00,VWS V14.01,2013-06-13 12:21:00,
2013-06-13 08:35:00,80.6,64.5,29.78,WSW,250,3.0,3.0,58,0.00,,CLR,0.00,VWS V14.01,2013-06-13 12:35:00,
2013-06-13 08:38:00,80.6,64.5,29.78,WSW,250,3.0,4.0,58,0.00,,CLR,0.00,VWS V14.01,2013-06-13 12:38:00,
2013-06-13 08:43:00,80.6,64.5,29.78,WSW,250,3.0,3.0,58,0.00,,CLR,0.00,VWS V14.01,2013-06-13 12:43:00,
2013-06-13 08:52:00,80.6,64.5,29.78,WSW,250,3.0,3.0,58,0.00,,CLR,0.00,VWS V14.01,2013-06-13 12:52:00,
2013-06-13 08:55:00,80.6,64.5,29.78,SW,230,4.0,4.0,58,0.00,,CLR,0.00,VWS V14.01,2013-06-13 12:55:00,
2013-06-13 08:58:00,80.6,64.5,29.78,SW,230,4.0,4.0,58,0.00,,CLR,0.00,VWS V14.01,2013-06-13 12:58:00,
2013-06-13 09:03:00,80.6,64.5,29.78,SW,230,4.0,4.0,58,0.00,,CLR,0.00,VWS V14.01,2013-06-13 13:03:00,
2013-06-13 09:15:00,82.4,66.2,29.77,WSW,250,8.0,8.0,58,0.00,,CLR,0.00,VWS V14.01,2013-06-13 13:15:00,
2013-06-13 09:21:00,82.4,66.2,29.77,WSW,250,8.0,8.0,58,0.00,,CLR,0.00,VWS V14.01,2013-06-13 13:21:00,
2013-06-13 09:35:00,84.2,66.3,29.77,West,260,8.0,8.0,55,0.00,,CLR,0.00,VWS V14.01,2013-06-13 13:35:00,
2013-06-13 09:39:00,84.2,66.3,29.77,West,260,8.0,8.0,55,0.00,,CLR,0.00,VWS V14.01,2013-06-13 13:39:00,
2013-06-13 09:44:00,84.2,66.3,29.77,West,260,8.0,8.0,55,0.00,,CLR,0.00,VWS V14.01,2013-06-13 13:44:00,
2013-06-13 09:55:00,84.2,64.7,29.76,West,270,11.0,11.0,52,0.00,,CLR,0.00,VWS V14.01,2013-06-13 13:55:00,
2013-06-13 09:59:00,84.2,64.7,29.76,West,270,11.0,11.0,52,0.00,,CLR,0.00,VWS V14.01,2013-06-13 13:59:00,
2013-06-13 10:04:00,84.2,64.7,29.76,West,270,11.0,11.0,52,0.00,,CLR,0.00,VWS V14.01,2013-06-13 14:04:00,
2013-06-13 10:15:00,86.0,64.6,29.75,WSW,250,11.0,11.0,49,0.00,,CLR,0.00,VWS V14.01,2013-06-13 14:15:00,
2013-06-13 10:21:00,86.0,64.6,29.75,WSW,250,11.0,11.0,49,0.00,,CLR,0.00,VWS V14.01,2013-06-13 14:21:00,
2013-06-13 10:35:00,86.0,62.8,29.74,WSW,250,12.0,12.0,46,0.00,,CLR,0.00,VWS V14.01,2013-06-13 14:35:00,
2013-06-13 10:41:00,86.0,62.8,29.74,WSW,250,12.0,12.0,46,0.00,,CLR,0.00,VWS V14.01,2013-06-13 14:41:00,
2013-06-13 10:55:00,87.8,62.5,29.74,SW,230,8.0,8.0,43,0.00,,CLR,0.00,VWS V14.01,2013-06-13 14:55:00,
2013-06-13 11:01:00,87.8,62.5,29.74,SW,230,8.0,12.0,43,0.00,,CLR,0.00,VWS V14.01,2013-06-13 15:01:00,
2013-06-13 11:15:00,87.8,64.5,29.74,SSW,210,6.0,6.0,46,0.00,,CLR,0.00,VWS V14.01,2013-06-13 15:15:00,
2013-06-13 11:21:00,87.8,64.5,29.74,SSW,210,6.0,8.0,46,0.00,,CLR,0.00,VWS V14.01,2013-06-13 15:21:00,
2013-06-13 11:35:00,87.8,64.5,29.74,SSW,200,5.0,5.0,46,0.00,,CLR,0.00,VWS V14.01,2013-06-13 15:35:00,
2013-06-13 11:39:00,87.8,64.5,29.74,SSW,200,5.0,6.0,46,0.00,,CLR,0.00,VWS V14.01,2013-06-13 15:39:00,
2013-06-13 11:44:00,87.8,64.5,29.74,SSW,200,5.0,5.0,46,0.00,,CLR,0.00,VWS V14.01,2013-06-13 15:44:00,
2013-06-13 11:55:00,87.8,64.5,29.72,South,190,5.0,5.0,46,0.00,,CLR,0.00,VWS V14.01,2013-06-13 15:55:00,
2013-06-13 12:01:00,87.8,64.5,29.72,South,190,5.0,5.0,46,0.00,,CLR,0.00,VWS V14.01,2013-06-13 16:01:00,
2013-06-13 12:15:00,89.6,66.1,29.72,South,170,5.0,5.0,46,0.00,,CLR,0.00,VWS V14.01,2013-06-13 16:15:00,
2013-06-13 12:21:00,89.6,66.1,29.72,South,170,5.0,5.0,46,0.00,,CLR,0.00,VWS V14.01,2013-06-13 16:21:00,
2013-06-13 12:35:00,87.8,64.5,29.71,SSE,160,6.0,6.0,46,0.00,,CLR,0.00,VWS V14.01,2013-06-13 16:35:00,
2013-06-13 12:38:00,87.8,64.5,29.71,SSE,160,6.0,6.0,46,0.00,,CLR,0.00,VWS V14.01,2013-06-13 16:38:00,
2013-06-13 12:43:00,87.8,64.5,29.71,SSE,160,6.0,6.0,46,0.00,,CLR,0.00,VWS V14.01,2013-06-13 16:43:00,
2013-06-13 12:55:00,89.6,62.8,29.70,SW,230,8.0,8.0,41,0.00,,CLR,0.00,VWS V14.01,2013-06-13 16:55:00,
2013-06-13 13:01:00,89.6,62.8,29.70,SW,230,8.0,8.0,41,0.00,,CLR,0.00,VWS V14.01,2013-06-13 17:01:00,
2013-06-13 13:15:00,91.4,63.0,29.69,SSW,210,9.0,9.0,39,0.00,,CLR,0.00,VWS V14.01,2013-06-13 17:15:00,
2013-06-13 13:21:00,91.4,63.0,29.69,SSW,210,9.0,9.0,39,0.00,,CLR,0.00,VWS V14.01,2013-06-13 17:21:00,
2013-06-13 13:35:00,93.2,62.3,29.68,SW,220,6.0,6.0,36,0.00,,CLR,0.00,VWS V14.01,2013-06-13 17:35:00,
2013-06-13 13:41:00,93.2,62.3,29.68,SW,220,6.0,9.0,36,0.00,,CLR,0.00,VWS V14.01,2013-06-13 17:41:00,
2013-06-13 13:51:00,93.2,62.3,29.68,SW,220,6.0,6.0,36,0.00,,CLR,0.00,VWS V14.01,2013-06-13 17:51:00,
2013-06-13 13:55:00,93.2,60.7,29.68,WSW,240,14.0,14.0,34,0.00,,SCT110,0.00,VWS V14.01,2013-06-13 17:55:00,
2013-06-13 14:01:00,93.2,60.7,29.68,WSW,240,14.0,14.0,34,0.00,,SCT110,0.00,VWS V14.01,2013-06-13 18:01:00,
2013-06-13 14:15:00,93.2,60.7,29.67,West,260,9.0,9.0,34,0.00,,SCT110,0.00,VWS V14.01,2013-06-13 18:15:00,
2013-06-13 14:21:00,93.2,60.7,29.67,West,260,9.0,14.0,34,0.00,,SCT110,0.00,VWS V14.01,2013-06-13 18:21:00,
2013-06-13 14:35:00,93.2,60.7,29.66,WSW,250,9.0,9.0,34,0.00,,SCT070,0.00,VWS V14.01,2013-06-13 18:35:00,
2013-06-13 14:41:00,93.2,60.7,29.66,WSW,250,9.0,9.0,34,0.00,,SCT070,0.00,VWS V14.01,2013-06-13 18:41:00,
2013-06-13 14:55:00,93.2,59.0,29.67,WSW,250,10.0,10.0,32,0.00,,SCT120,0.00,VWS V14.01,2013-06-13 18:55:00,
2013-06-13 15:01:00,93.2,59.0,29.67,WSW,250,10.0,10.0,32,0.00,,SCT120,0.00,VWS V14.01,2013-06-13 19:01:00,
2013-06-13 15:15:00,89.6,62.8,29.67,West,260,4.0,4.0,41,0.00,,SCT120,0.00,VWS V14.01,2013-06-13 19:15:00,
2013-06-13 15:18:00,89.6,62.8,29.67,West,260,4.0,10.0,41,0.00,,SCT120,0.00,VWS V14.01,2013-06-13 19:18:00,
2013-06-13 15:23:00,89.6,62.8,29.67,West,260,4.0,4.0,41,0.00,,SCT120,0.00,VWS V14.01,2013-06-13 19:23:00,
2013-06-13 15:35:00,77.0,66.1,29.68,WSW,250,10.0,10.0,69,0.08,, +RA,0.08,VWS V14.01,2013-06-13 19:35:00,
2013-06-13 15:41:00,77.0,66.1,29.68,WSW,250,10.0,10.0,69,0.08,, +RA,0.08,VWS V14.01,2013-06-13 19:41:00,
2013-06-13 15:55:00,71.6,66.2,29.72,SW,230,8.0,8.0,83,0.11,,-RA,0.11,VWS V14.01,2013-06-13 19:55:00,
2013-06-13 16:01:00,71.6,66.2,29.72,SW,230,8.0,10.0,83,0.11,,-RA,0.11,VWS V14.01,2013-06-13 20:01:00,
2013-06-13 16:15:00,71.6,67.9,29.72,North,350,11.0,11.0,88,0.00,,SCT090,0.00,VWS V14.01,2013-06-13 20:15:00,
2013-06-13 16:21:00,71.6,67.9,29.72,North,350,11.0,11.0,88,0.00,,SCT090,0.00,VWS V14.01,2013-06-13 20:21:00,
2013-06-13 16:35:00,75.2,66.3,29.70,SW,230,4.0,4.0,74,0.00,,SCT080,0.00,VWS V14.01,2013-06-13 20:35:00,
2013-06-13 16:41:00,75.2,66.3,29.70,SW,230,4.0,11.0,74,0.00,,SCT080,0.00,VWS V14.01,2013-06-13 20:41:00,
2013-06-13 16:55:00,73.4,67.9,29.71,NW,320,6.0,6.0,83,0.00,,-RA,0.00,VWS V14.01,2013-06-13 20:55:00,
2013-06-13 17:01:00,73.4,67.9,29.71,NW,320,6.0,6.0,83,0.00,,-RA,0.00,VWS V14.01,2013-06-13 21:01:00,
2013-06-13 17:15:00,71.6,67.9,29.70,SW,220,8.0,8.0,88,0.00,,-RA,0.00,VWS V14.01,2013-06-13 21:15:00,
2013-06-13 17:21:00,73.4,67.9,29.71,NW,320,6.0,6.0,83,0.00,,-RA,0.00,VWS V14.01,2013-06-13 21:21:00,
2013-06-13 17:35:00,73.4,66.1,29.66,WSW,240,5.0,5.0,78,0.00,,SCT110,0.00,VWS V14.01,2013-06-13 21:35:00,
2013-06-13 17:38:00,73.4,66.1,29.66,WSW,240,5.0,8.0,78,0.00,,SCT110,0.00,VWS V14.01,2013-06-13 21:38:00,
2013-06-13 17:43:00,73.4,66.1,29.66,WSW,240,5.0,5.0,78,0.00,,SCT110,0.00,VWS V14.01,2013-06-13 21:43:00,
2013-06-13 17:55:00,71.6,66.2,29.70,North,0,0.0,0.0,83,0.00,,SCT120,0.00,VWS V14.01,2013-06-13 21:55:00,
2013-06-13 18:01:00,71.6,66.2,29.70,North,0,0.0,5.0,83,0.00,,SCT120,0.00,VWS V14.01,2013-06-13 22:01:00,
2013-06-13 18:08:00,71.6,66.2,29.70,North,0,0.0,0.0,83,0.00,,SCT120,0.00,VWS V14.01,2013-06-13 22:08:00,
2013-06-13 18:15:00,71.6,66.2,29.69,SSW,210,8.0,8.0,83,0.00,,BKN120,0.00,VWS V14.01,2013-06-13 22:15:00,
2013-06-13 18:19:00,71.6,66.2,29.69,SSW,210,8.0,8.0,83,0.00,,BKN120,0.00,VWS V14.01,2013-06-13 22:19:00,
2013-06-13 18:24:00,71.6,66.2,29.69,SSW,210,8.0,8.0,83,0.00,,BKN120,0.00,VWS V14.01,2013-06-13 22:24:00,
2013-06-13 18:35:00,73.4,64.2,29.69,SW,230,8.0,8.0,73,0.00,,SCT120,0.00,VWS V14.01,2013-06-13 22:35:00,
2013-06-13 18:41:00,73.4,64.2,29.69,SW,230,8.0,8.0,73,0.00,,SCT120,0.00,VWS V14.01,2013-06-13 22:41:00,
2013-06-13 18:55:00,75.2,66.3,29.70,WSW,250,5.0,5.0,74,0.00,,CLR,0.00,VWS V14.01,2013-06-13 22:55:00,
2013-06-13 19:01:00,75.2,66.3,29.70,WSW,250,5.0,8.0,74,0.00,,CLR,0.00,VWS V14.01,2013-06-13 23:01:00,
2013-06-13 19:15:00,75.2,64.3,29.70,SW,230,3.0,3.0,69,0.00,,CLR,0.00,VWS V14.01,2013-06-13 23:15:00,
2013-06-13 19:18:00,75.2,66.3,29.70,WSW,250,5.0,5.0,74,0.00,,CLR,0.00,VWS V14.01,2013-06-13 23:18:00,
2013-06-13 19:23:00,75.2,64.3,29.70,SW,230,3.0,3.0,69,0.00,,CLR,0.00,VWS V14.01,2013-06-13 23:23:00,
2013-06-13 19:35:00,73.4,66.1,29.72,WSW,240,4.0,4.0,78,0.00,,BKN048,0.00,VWS V14.01,2013-06-13 23:35:00,
2013-06-13 19:41:00,73.4,66.1,29.72,WSW,240,4.0,4.0,78,0.00,,BKN048,0.00,VWS V14.01,2013-06-13 23:41:00,
2013-06-13 19:55:00,73.4,64.2,29.72,SW,230,4.0,4.0,73,0.00,,OVC048,0.00,VWS V14.01,2013-06-13 23:55:00,
2013-06-13 20:01:00,73.4,64.2,29.72,SW,230,4.0,4.0,73,0.00,,OVC048,0.00,VWS V14.01,2013-06-14 00:01:00,
2013-06-13 20:15:00,75.2,64.3,29.72,SW,230,3.0,3.0,69,0.00,,OVC048,0.00,VWS V14.01,2013-06-14 00:15:00,
2013-06-13 20:18:00,73.4,64.2,29.72,SW,230,4.0,4.0,73,0.00,,OVC048,0.00,VWS V14.01,2013-06-14 00:18:00,
2013-06-13 20:23:00,75.2,64.3,29.72,SW,230,3.0,3.0,69,0.00,,OVC048,0.00,VWS V14.01,2013-06-14 00:23:00,
2013-06-13 20:35:00,73.4,64.2,29.72,WSW,250,5.0,5.0,73,0.00,,BKN050,0.00,VWS V14.01,2013-06-14 00:35:00,
2013-06-13 20:41:00,73.4,64.2,29.72,WSW,250,5.0,5.0,73,0.00,,BKN050,0.00,VWS V14.01,2013-06-14 00:41:00,
2013-06-13 20:55:00,71.6,64.4,29.72,SW,220,3.0,3.0,78,0.00,,SCT046,0.00,VWS V14.01,2013-06-14 00:55:00,
2013-06-13 21:01:00,71.6,64.4,29.72,SW,220,3.0,5.0,78,0.00,,SCT046,0.00,VWS V14.01,2013-06-14 01:01:00,
2013-06-13 21:15:00,71.6,64.4,29.72,North,0,0.0,0.0,78,0.00,,CLR,0.00,VWS V14.01,2013-06-14 01:15:00,
2013-06-13 21:21:00,71.6,64.4,29.72,North,0,0.0,3.0,78,0.00,,CLR,0.00,VWS V14.01,2013-06-14 01:21:00,
2013-06-13 21:35:00,73.4,62.6,29.72,North,0,0.0,0.0,69,0.00,,SCT050,0.00,VWS V14.01,2013-06-14 01:35:00,
2013-06-13 21:41:00,73.4,62.6,29.72,North,0,0.0,0.0,69,0.00,,SCT050,0.00,VWS V14.01,2013-06-14 01:41:00,
2013-06-13 21:55:00,73.4,62.6,29.74,North,0,0.0,0.0,69,0.00,,BKN090,0.00,VWS V14.01,2013-06-14 01:55:00,
2013-06-13 21:59:00,73.4,62.6,29.74,North,0,0.0,0.0,69,0.00,,BKN090,0.00,VWS V14.01,2013-06-14 01:59:00,
2013-06-13 22:04:00,73.4,62.6,29.74,North,0,0.0,0.0,69,0.00,,BKN090,0.00,VWS V14.01,2013-06-14 02:04:00,
2013-06-13 22:15:00,73.4,62.6,29.74,North,0,0.0,0.0,69,0.00,,OVC060,0.00,VWS V14.01,2013-06-14 02:15:00,
2013-06-13 22:18:00,73.4,62.6,29.74,North,0,0.0,0.0,69,0.00,,OVC060,0.00,VWS V14.01,2013-06-14 02:18:00,
2013-06-13 22:23:00,73.4,62.6,29.74,North,0,0.0,0.0,69,0.00,,OVC060,0.00,VWS V14.01,2013-06-14 02:23:00,
2013-06-13 22:35:00,69.8,64.4,29.75,North,0,0.0,0.0,83,0.00,,OVC050,0.00,VWS V14.01,2013-06-14 02:35:00,
2013-06-13 22:41:00,69.8,64.4,29.75,North,0,0.0,0.0,83,0.00,,OVC050,0.00,VWS V14.01,2013-06-14 02:41:00,
2013-06-13 22:55:00,71.6,64.4,29.75,West,260,3.0,3.0,78,0.00,,OVC060,0.00,VWS V14.01,2013-06-14 02:55:00,
2013-06-13 23:01:00,71.6,64.4,29.75,West,260,3.0,3.0,78,0.00,,OVC060,0.00,VWS V14.01,2013-06-14 03:01:00,
2013-06-13 23:15:00,71.6,62.5,29.75,North,0,0.0,0.0,73,0.00,,OVC050,0.00,VWS V14.01,2013-06-14 03:15:00,
2013-06-13 23:18:00,71.6,62.5,29.75,North,0,0.0,3.0,73,0.00,,OVC050,0.00,VWS V14.01,2013-06-14 03:18:00,
2013-06-13 23:24:00,71.6,62.5,29.75,North,0,0.0,0.0,73,0.00,,OVC050,0.00,VWS V14.01,2013-06-14 03:24:00,
2013-06-13 23:35:00,73.4,62.6,29.76,West,270,4.0,4.0,69,0.00,,OVC055,0.00,VWS V14.01,2013-06-14 03:35:00,
2013-06-13 23:39:00,73.4,62.6,29.76,West,270,4.0,4.0,69,0.00,,OVC055,0.00,VWS V14.01,2013-06-14 03:39:00,
2013-06-13 23:44:00,73.4,62.6,29.76,West,270,4.0,4.0,69,0.00,,OVC055,0.00,VWS V14.01,2013-06-14 03:44:00,
2013-06-13 23:55:00,73.4,62.6,29.78,NNW,340,5.0,5.0,69,0.00,,OVC060,0.00,VWS V14.01,2013-06-14 03:55:00,